THORAD AGENA D DEB, 4821

Orbit data source: Space-Track

THORAD AGENA D DEB, 4821 is space debris in SSO originally from a launch on Wed, 08 Apr 1970 UTC launched from the Air Force Western Test Range (AFWTR). Debris objects in space refer to the collection of defunct objects orbiting the Earth. Examples of debris include non-operational satellites, rocket bodies, and fragments generated from explosions, collisions, or faulty payload assembly.

Loading next visibility...
Identifier
4821, 1970-025EC
Orbit
SSO
Country
Flag of USUS
Related business
Manufacturer
Unknown
Mission
Spacecraft
Bus & Motor
Unknown
Mass
Unknown
Launch date (UTC)
1970-04-08 (56 years ago)
Launch vehicle
Unknown
Launch site
Air Force Western Test Range (AFWTR)
Object type
Payload
Rocket body
Debris
Shape & HBR
Unknown shape, 0.1 m
Radar Cross Section
Small (<0.1 m²)

Expand to show TLE details & history
Last TLE update: 17 hours ago

TLE from 17 hours ago
0 THORAD AGENA D DEB
1 04821U 70025EC  26035.09236581  .00000275  00000-0  43708-3 0  9998
2 04821 100.0335  76.3757 0010263 192.9445 192.4482 13.59206891758138
Epoch: 2026-02-04T02:13Z
TLE epoch observation values (Epoch: 2026-02-04T02:13:00.405Z)
Latitude
24.9816°
Longitude
-95.844°
Altitude
1,048.92 km
Speed
7.326 km/s
True Right ascension
04h 46m 41s
True Declination
24° 51' 19"
Sunlit
Object was in daylight at epoch
Visualization orbit readout
Latitude
Unknown
Longitude
Unknown
Altitude
Unknown
Speed
Unknown
Apparent Right ascension
Unknown
Apparent Declination
Unknown
Sunlit
N/A
Visualization observer readout
Local Sidereal Time
21:27:09
Azimuth
Unknown
Elevation
Unknown
Doppler factor
Unknown
Orbital elements
Apogee altitude
1,043.491 km
Perigee altitude
1,028.273 km
Semi-major axis
7,414.019 km
Eccentricity
0.00103
Inclination
100.0335°
RAAN
76.3757°
Arg. of periapsis
192.9445°
True anomaly
192.42288°
Mean anomaly
192.4482°
Eccentric anomaly
192.43554°
Mean motion
3.39987 °/min
Orbital period
105.89 mins
BSTAR
0.00043708
Loading maneuver chart data...
Computing Atmospheric mass density...

Documentation

Showing up to 5 results
|